FW3111 Weather Reports


Display with metric or nautical units.
time (UTC)temp
F
wind
direction
speed
MPH
gust
MPH
rain 1hr
in
rain 24hr
in
rain mn
in
humidity
%
barometer
mb
20260831034032 64 5 3.0 8.0 0.00 0.02 0.02 100 1017.2
20260831033534 64 5 3.0 8.0 0.00 0.02 0.02 100 1017.3
20260831033031 64 19 4.0 10.0 0.00 0.02 0.02 100 1017.3
20260831032533 64 30 3.0 10.0 0.00 0.02 0.02 100 1017.4
20260831032035 64 57 4.0 12.0 0.00 0.02 0.02 100 1017.5
20260831031534 64 29 4.0 12.0 0.00 0.02 0.02 100 1017.6
20260831031030 64 59 4.0 14.0 0.00 0.02 0.02 100 1017.8
20260831030530 64 61 5.0 15.0 0.00 0.02 0.02 100 1018.1
20260831030030 64 72 9.0 16.0 0.00 0.02 0.02 100 1017.9
20260831025530 64 63 8.0 16.0 0.00 0.02 0.02 100 1017.7
20260831025030 65 43 6.0 15.0 0.00 0.02 0.02 100 1017.5
20260831024531 65 10 4.0 13.0 0.00 0.02 0.02 100 1017.5
20260831024030 65 57 5.0 13.0 0.00 0.02 0.02 100 1017.4
20260831023532 65 49 7.0 18.0 0.00 0.02 0.02 100 1017.3
20260831023029 66 26 8.0 18.0 0.00 0.02 0.02 100 1017.1
20260831022529 66 46 7.0 14.0 0.00 0.02 0.02 100 1017.0
20260831022029 66 39 4.0 14.0 0.00 0.02 0.02 100 1016.8
20260831021531 66 65 6.0 11.0 0.00 0.02 0.02 100 1016.8
20260831021029 66 355 5.0 10.0 0.00 0.02 0.02 100 1016.6
20260831020533 66 44 4.0 13.0 0.00 0.02 0.02 100 1016.6
20260831020029 66 57 5.0 13.0 0.00 0.02 0.02 100 1016.4
20260831015535 66 62 5.0 16.0 0.00 0.02 0.02 100 1016.5
20260831015032 66 5 7.0 16.0 0.00 0.02 0.02 100 1016.5
20260831014530 66 51 9.0 17.0 0.00 0.02 0.02 100 1016.1
20260831014030 66 61 10.0 17.0 0.00 0.02 0.02 100 1016.0
20260831013528 66 360 8.0 16.0 0.00 0.02 0.02 100 1016.5
20260831013039 66 60 6.0 20.0 0.00 0.02 0.02 100 1016.2
20260831012528 66 44 10.0 20.0 0.00 0.02 0.02 100 1015.8
20260831012026 66 360 8.0 14.0 0.00 0.02 0.02 100 1016.0
20260831011529 66 65 8.0 16.0 0.00 0.02 0.02 100 1015.9
20260831011029 67 71 8.0 16.0 0.00 0.02 0.02 100 1015.4
20260831010526 67 78 6.0 16.0 0.00 0.02 0.02 100 1015.1
20260831010027 67 67 9.0 16.0 0.00 0.02 0.02 100 1014.9
20260831005526 67 34 7.0 15.0 0.00 0.02 0.02 100 1014.7
20260831005027 67 64 5.0 12.0 0.00 0.02 0.02 100 1014.6
20260831004527 67 77 4.0 12.0 0.00 0.02 0.02 100 1014.6
20260831004027 67 67 5.0 14.0 0.00 0.02 0.02 100 1014.6
20260831003526 67 360 5.0 14.0 0.00 0.02 0.02 100 1014.8
20260831003026 67 9 6.0 13.0 0.00 0.02 0.02 100 1014.7
20260831002525 68 360 6.0 15.0 0.00 0.02 0.02 100 1014.7
20260831002025 68 360 6.0 13.0 0.00 0.02 0.02 100 1014.9
20260831001532 68 360 6.0 13.0 0.00 0.02 0.02 100 1014.8
20260831001026 68 73 6.0 11.0 0.00 0.02 0.02 100 1014.7
20260831000525 68 76 4.0 16.0 0.00 0.02 0.02 100 1014.7
20260831000026 68 360 7.0 16.0 0.00 0.02 0.02 100 1014.6
20260830235525 68 360 5.0 14.0 0.00 0.02 0.02 100 1014.5
20260830235028 68 43 3.0 13.0 0.00 0.02 0.02 100 1014.5
20260830234527 68 38 7.0 15.0 0.00 0.02 0.02 100 1014.3
20260830234024 68 360 6.0 15.0 0.00 0.02 0.02 100 1014.1
20260830233527 68 360 4.0 14.0 0.00 0.02 0.02 100 1014.1
20260830233024 68 360 4.0 14.0 0.00 0.02 0.02 100 1014.0
20260830232523 68 360 6.0 15.0 0.01 0.02 0.02 100 1013.9
20260830232027 67 360 5.0 13.0 0.01 0.02 0.02 100 1013.9
20260830231524 67 360 5.0 13.0 0.01 0.02 0.02 100 1013.6
20260830231024 67 78 6.0 11.0 0.02 0.02 0.02 100 1013.4
20260830230523 67 52 6.0 11.0 0.02 0.02 0.02 100 1013.4
20260830230027 67 55 4.0 12.0 0.02 0.02 0.02 100 1013.4
20260830225524 67 360 6.0 12.0 0.02 0.02 0.02 100 1013.3
20260830225027 67 64 3.0 13.0 0.02 0.02 0.02 100 1013.0
20260830224523 67 35 4.0 13.0 0.02 0.02 0.02 100 1012.9
20260830224030 68 92 3.0 9.0 0.02 0.02 0.02 100 1013.1
20260830223522 69 37 2.0 6.0 0.02 0.02 0.02 100 1013.0
20260830223026 69 57 2.0 6.0 0.02 0.02 0.02 100 1013.2
20260830222522 70 38 2.0 6.0 0.02 0.02 0.02 100 1013.1
20260830222023 72 71 2.0 10.0 0.02 0.02 0.02 100 1013.0
20260830221521 73 5 3.0 10.0 0.02 0.02 0.02 100 1012.8
20260830221022 74 55 3.0 11.0 0.01 0.01 0.01 100 1012.7
20260830220521 75 85 4.0 11.0 0.00 0.00 0.00 100 1012.7
20260830220021 76 90 3.0 15.0 0.00 0.00 0.00 100 1012.7
20260830215521 76 338 5.0 15.0 0.00 0.00 0.00 100 1012.6
20260830215020 76 53 4.0 12.0 0.00 0.00 0.00 100 1012.6
20260830214521 77 344 5.0 16.0 0.00 0.00 0.00 100 1012.6
20260830214020 78 360 7.0 16.0 0.00 0.00 0.00 100 1012.7
20260830213524 78 5 2.0 16.0 0.00 0.00 0.00 100 1012.6
20260830213019 79 68 5.0 16.0 0.00 0.00 0.00 100 1012.3
20260830212519 79 9 7.0 13.0 0.00 0.00 0.00 100 1012.4
20260830212020 80 43 2.0 10.0 0.00 0.00 0.00 100 1012.4
20260830211520 80 24 4.0 14.0 0.00 0.00 0.00 100 1012.5
20260830211018 81 66 6.0 14.0 0.00 0.00 0.00 100 1012.6
20260830210518 81 26 4.0 12.0 0.00 0.00 0.00 100 1012.6
20260830210016 81 82 3.0 14.0 0.00 0.00 0.00 100 1012.8
20260830205518 81 311 4.0 14.0 0.00 0.00 0.00 100 1012.9
20260830205013 80 318 3.0 16.0 0.00 0.00 0.00 100 1012.9
20260830204516 80 327 6.0 16.0 0.00 0.00 0.00 100 1013.0
20260830204012 80 74 2.0 13.0 0.00 0.00 0.00 100 1013.1
20260830203511 79 326 4.0 13.0 0.00 0.00 0.00 100 1013.1
20260830203021 79 14 7.0 12.0 0.00 0.00 0.00 100 1013.2
20260830202510 80 311 6.0 12.0 0.00 0.00 0.00 100 1013.4
20260830202010 79 44 1.0 14.0 0.00 0.00 0.00 100 1013.3
20260830201509 79 348 7.0 16.0 0.00 0.00 0.00 100 1013.5
20260830201016 79 360 5.0 14.0 0.00 0.00 0.00 100 1013.7
20260830200508 79 330 4.0 11.0 0.00 0.00 0.00 100 1013.6
20260830200009 79 46 4.0 12.0 0.00 0.00 0.00 100 1013.8
20260830195507 79 55 6.0 16.0 0.00 0.00 0.00 100 1013.9
20260830195007 79 30 6.0 16.0 0.00 0.00 0.00 100 1013.9
20260830194506 79 36 8.0 14.0 0.00 0.00 0.00 100 1014.0
20260830194007 80 61 4.0 13.0 0.00 0.00 0.00 100 1014.1
20260830193504 79 360 4.0 13.0 0.00 0.00 0.00 100 1014.2
20260830193002 78 360 4.0 11.0 0.00 0.00 0.00 100 1014.3
20260830192500 78 32 2.0 13.0 0.00 0.00 0.00 100 1014.5
20260830192100 78 13 6.0 17.0 0.00 0.00 0.00 100 1014.7
20260830191603 78 355 5.0 17.0 0.00 0.00 0.00 100 1014.8
20260830191059 78 59 8.0 16.0 0.00 0.00 0.00 100 1014.7
20260830190601 77 5 5.0 14.0 0.00 0.00 0.00 100 1014.8
20260830190056 77 105 4.0 15.0 0.00 0.00 0.00 100 1014.9
20260830185555 77 10 9.0 16.0 0.00 0.00 0.00 100 1015.1
20260830185055 76 355 5.0 16.0 0.00 0.00 0.00 100 1015.1
20260830184553 76 15 5.0 13.0 0.00 0.00 0.00 100 1015.2
20260830184051 76 55 6.0 16.0 0.00 0.00 0.00 100 1015.3
20260830183554 75 22 5.0 16.0 0.00 0.00 0.00 100 1015.3
20260830183050 75 53 6.0 17.0 0.00 0.00 0.00 100 1015.4
20260830182550 75 355 4.0 17.0 0.00 0.00 0.00 100 1015.4
20260830182049 75 27 9.0 17.0 0.00 0.00 0.00 100 1015.5
20260830181549 75 41 6.0 13.0 0.00 0.00 0.00 100 1015.6
20260830181048 75 90 5.0 17.0 0.00 0.00 0.00 100 1015.7
20260830180547 75 360 8.0 17.0 0.00 0.00 0.00 100 1015.8
20260830180046 75 351 6.0 12.0 0.00 0.00 0.00 100 1015.9
20260830175544 74 355 6.0 12.0 0.00 0.00 0.00 100 1016.1
20260830175044 75 26 3.0 15.0 0.00 0.00 0.00 100 1016.2
20260830174552 75 334 5.0 13.0 0.00 0.00 0.00 100 1016.3
20260830174045 75 20 6.0 13.0 0.00 0.00 0.00 100 1016.2
20260830173543 75 355 4.0 11.0 0.00 0.00 0.00 100 1016.3
20260830173100 75 40 3.0 14.0 0.00 0.00 0.00 100 1016.3
20260830172542 75 360 5.0 14.0 0.00 0.00 0.00 100 1016.3
20260830172041 74 72 3.0 12.0 0.00 0.00 0.00 100 1016.2
20260830171541 74 313 5.0 13.0 0.00 0.00 0.00 100 1016.3
20260830171040 73 32 5.0 13.0 0.00 0.00 0.00 100 1016.4
20260830170543 73 61 6.0 13.0 0.00 0.00 0.00 100 1016.5
20260830170049 73 59 4.0 14.0 0.00 0.00 0.00 100 1016.7
20260830165541 74 360 5.0 15.0 0.00 0.00 0.00 100 1016.6
20260830165037 74 49 3.0 14.0 0.00 0.00 0.00 100 1016.6
20260830164545 73 24 4.0 16.0 0.00 0.00 0.00 100 1016.8
20260830164035 72 80 8.0 16.0 0.00 0.00 0.00 100 1016.9
20260830163535 72 11 5.0 13.0 0.00 0.00 0.00 100 1017.0
20260830163039 73 36 7.0 13.0 0.00 0.00 0.00 100 1017.2
20260830162534 73 48 5.0 15.0 0.00 0.00 0.00 100 1017.4
20260830162034 73 83 6.0 16.0 0.00 0.00 0.00 100 1017.6
20260830161534 72 50 6.0 13.0 0.00 0.00 0.00 100 1017.7
20260830161031 72 60 4.0 16.0 0.00 0.00 0.00 100 1017.7
20260830160529 71 329 3.0 16.0 0.00 0.00 0.00 100 1017.8
20260830160031 71 350 6.0 15.0 0.00 0.00 0.00 100 1017.8
20260830155528 71 80 6.0 13.0 0.00 0.00 0.00 100 1017.9
20260830155028 71 26 7.0 14.0 0.00 0.00 0.00 100 1017.8
20260830154528 71 10 6.0 14.0 0.00 0.00 0.00 100 1018.0
20260830154027 70 51 5.0 14.0 0.00 0.00 0.00 100 1018.1
20260830153527 70 78 7.0 13.0 0.00 0.00 0.00 100 1018.3
20260830153042 70 63 7.0 13.0 0.00 0.00 0.00 100 1018.4
20260830152524 70 315 5.0 12.0 0.00 0.00 0.00 100 1018.3
20260830152024 69 5 4.0 11.0 0.00 0.00 0.00 100 1018.3
20260830151522 69 5 4.0 14.0 0.00 0.00 0.00 100 1018.3
20260830151024 69 28 6.0 14.0 0.00 0.00 0.00 100 1018.3
20260830150521 69 360 6.0 14.0 0.00 0.00 0.00 100 1018.3
20260830150021 69 42 6.0 14.0 0.00 0.00 0.00 100 1018.3
20260830145520 69 30 8.0 13.0 0.00 0.00 0.00 100 1018.4
20260830145019 67 327 5.0 17.0 0.00 0.00 0.00 100 1018.3
20260830144518 66 326 7.0 17.0 0.00 0.00 0.00 100 1018.2
20260830144018 65 86 3.0 14.0 0.00 0.00 0.00 100 1018.3
20260830143514 65 329 5.0 13.0 0.00 0.00 0.00 100 1018.2
20260830143013 64 58 3.0 15.0 0.00 0.00 0.00 100 1018.1
20260830142515 64 20 6.0 15.0 0.00 0.00 0.00 100 1018.0
20260830142012 64 14 4.0 15.0 0.00 0.00 0.00 100 1018.0
20260830141517 64 35 5.0 10.0 0.00 0.00 0.00 100 1017.9
20260830141010 64 5 4.0 11.0 0.00 0.00 0.00 100 1017.9
20260830140511 63 11 4.0 13.0 0.00 0.00 0.00 100 1017.9
20260830140009 63 360 5.0 12.0 0.00 0.00 0.00 100 1017.7
20260830135509 63 52 6.0 15.0 0.00 0.00 0.00 100 1017.7
20260830135009 63 43 6.0 15.0 0.00 0.00 0.00 100 1017.7
20260830134512 62 57 5.0 10.0 0.00 0.00 0.00 100 1017.5
20260830134006 62 39 4.0 13.0 0.00 0.00 0.00 100 1017.5
20260830133505 61 36 3.0 14.0 0.00 0.00 0.00 100 1017.6
20260830133005 61 12 5.0 14.0 0.00 0.00 0.00 100 1017.5
20260830132503 61 60 5.0 11.0 0.00 0.00 0.00 100 1017.4
20260830132002 60 66 4.0 13.0 0.00 0.00 0.00 100 1017.4
20260830131506 60 59 6.0 11.0 0.00 0.00 0.00 100 1017.3
20260830131002 60 71 3.0 11.0 0.00 0.00 0.00 100 1017.4
20260830130504 60 36 4.0 11.0 0.00 0.00 0.00 100 1017.3
20260830130003 60 35 6.0 11.0 0.00 0.00 0.00 100 1017.3
20260830125500 60 59 4.0 11.0 0.00 0.00 0.00 100 1017.3
20260830125102 59 64 4.0 11.0 0.00 0.00 0.00 100 1017.5
20260830124600 60 42 4.0 10.0 0.00 0.00 0.00 100 1017.5
20260830124100 59 61 5.0 11.0 0.00 0.00 0.00 100 1017.4
20260830123602 59 49 5.0 11.0 0.00 0.00 0.00 100 1017.4
20260830123059 59 30 4.0 12.0 0.00 0.00 0.00 100 1017.4
20260830122557 59 28 4.0 9.0 0.00 0.00 0.00 100 1017.4
20260830122056 59 46 2.0 10.0 0.00 0.00 0.00 100 1017.4
20260830121556 59 56 5.0 11.0 0.00 0.00 0.00 100 1017.5
20260830121054 59 60 5.0 11.0 0.00 0.00 0.00 100 1017.5
20260830120554 59 67 3.0 12.0 0.00 0.00 0.00 100 1017.4
20260830120055 59 41 7.0 12.0 0.00 0.00 0.00 100 1017.3
20260830115553 59 44 5.0 11.0 0.00 0.00 0.00 100 1017.4
20260830115055 59 13 4.0 10.0 0.00 0.00 0.00 100 1017.4
20260830114553 59 57 4.0 10.0 0.00 0.00 0.00 100 1017.4
20260830114051 59 39 4.0 10.0 0.00 0.00 0.00 100 1017.3
20260830113551 59 36 4.0 12.0 0.00 0.00 0.00 100 1017.4
20260830113050 59 44 3.0 10.0 0.00 0.00 0.00 100 1017.4
20260830112549 59 40 4.0 9.0 0.00 0.00 0.00 100 1017.3
20260830112049 59 19 4.0 10.0 0.00 0.00 0.00 100 1017.3
20260830111552 59 5 2.0 10.0 0.00 0.00 0.00 100 1017.2
20260830111048 59 16 3.0 10.0 0.00 0.00 0.00 100 1017.2
20260830110547 59 44 2.0 11.0 0.00 0.00 0.00 100 1017.2
20260830110048 59 81 4.0 11.0 0.00 0.00 0.00 100 1017.3
20260830105547 59 355 5.0 13.0 0.00 0.00 0.00 100 1017.2
20260830105046 59 38 6.0 13.0 0.00 0.00 0.00 100 1017.2
20260830104546 59 20 7.0 12.0 0.00 0.00 0.00 100 1017.2
20260830104046 59 42 4.0 11.0 0.00 0.00 0.00 100 1017.1
20260830103545 59 32 5.0 11.0 0.00 0.00 0.00 100 1017.0
20260830103045 59 35 5.0 12.0 0.00 0.00 0.00 100 1017.1
20260830102544 59 41 5.0 12.0 0.00 0.00 0.00 100 1017.1
20260830102044 59 30 3.0 13.0 0.00 0.00 0.00 100 1017.1
20260830101544 59 35 4.0 11.0 0.00 0.00 0.00 100 1017.1
20260830101044 59 355 3.0 11.0 0.00 0.00 0.00 100 1017.1
20260830100543 59 66 5.0 10.0 0.00 0.00 0.00 100 1017.0
20260830100045 59 47 4.0 10.0 0.00 0.00 0.00 100 1017.1
20260830095545 59 38 3.0 13.0 0.00 0.00 0.00 100 1017.1
20260830095046 59 24 5.0 13.0 0.00 0.00 0.00 100 1017.2
20260830094540 59 53 4.0 11.0 0.00 0.00 0.00 100 1017.1
20260830094040 60 61 5.0 10.0 0.00 0.00 0.00 100 1017.2
20260830093540 60 33 5.0 12.0 0.00 0.00 0.00 100 1017.1
20260830093043 60 30 3.0 12.0 0.00 0.00 0.00 100 1017.2
20260830092538 60 338 4.0 11.0 0.00 0.00 0.00 100 1017.3
20260830092038 59 14 5.0 13.0 0.00 0.00 0.00 100 1017.2
20260830091545 59 65 3.0 13.0 0.00 0.00 0.00 100 1017.2
20260830091041 60 12 2.0 11.0 0.00 0.00 0.00 100 1017.0
20260830090537 60 10 5.0 11.0 0.00 0.00 0.00 100 1016.9
20260830090037 60 40 3.0 12.0 0.00 0.00 0.00 100 1016.9
20260830085536 60 17 5.0 12.0 0.00 0.00 0.00 100 1016.9
20260830085035 60 26 5.0 10.0 0.00 0.00 0.00 100 1017.0
20260830084535 60 34 3.0 9.0 0.00 0.00 0.00 100 1016.9
20260830084037 60 13 2.0 11.0 0.00 0.00 0.00 100 1017.1
20260830083535 60 46 5.0 10.0 0.00 0.00 0.00 100 1017.1
20260830083046 60 321 3.0 9.0 0.00 0.00 0.00 100 1017.1
20260830082534 60 41 4.0 10.0 0.00 0.00 0.00 100 1017.0
20260830082033 60 59 4.0 11.0 0.00 0.00 0.00 100 1017.0
20260830081532 60 26 4.0 11.0 0.00 0.00 0.00 100 1017.1
20260830081032 60 5 3.0 11.0 0.00 0.00 0.00 100 1017.2
20260830080532 60 342 3.0 12.0 0.00 0.00 0.00 100 1017.2
20260830080034 60 58 4.0 12.0 0.00 0.00 0.00 100 1017.3
20260830075533 60 51 4.0 11.0 0.00 0.00 0.00 100 1017.3
20260830075032 60 30 5.0 12.0 0.00 0.00 0.00 100 1017.3
20260830074531 60 360 4.0 13.0 0.00 0.00 0.00 100 1017.3
20260830074030 60 61 5.0 11.0 0.00 0.00 0.00 100 1017.3
20260830073529 60 36 3.0 11.0 0.00 0.00 0.00 100 1017.3
20260830073031 60 5 3.0 10.0 0.00 0.00 0.00 100 1017.5
20260830072530 60 9 4.0 10.0 0.00 0.00 0.00 100 1017.6
20260830072028 60 28 4.0 12.0 0.00 0.00 0.00 100 1017.6
20260830071528 60 16 5.0 12.0 0.00 0.00 0.00 100 1017.5
20260830071027 60 11 4.0 10.0 0.00 0.00 0.00 100 1017.6
20260830070531 60 355 3.0 9.0 0.00 0.00 0.00 100 1017.8
20260830070026 60 12 4.0 11.0 0.00 0.00 0.00 100 1018.1
20260830065525 60 46 4.0 11.0 0.00 0.00 0.00 100 1018.1
20260830065025 60 355 5.0 11.0 0.00 0.00 0.00 100 1018.1
20260830064526 60 22 4.0 13.0 0.00 0.00 0.00 100 1018.1
20260830064024 60 59 4.0 11.0 0.00 0.00 0.00 100 1018.1
20260830063525 60 61 6.0 11.0 0.00 0.00 0.00 100 1018.0
20260830063020 60 42 4.0 13.0 0.00 0.00 0.00 100 1018.2
20260830062520 60 38 5.0 13.0 0.00 0.00 0.00 100 1018.3
20260830062019 60 360 4.0 10.0 0.00 0.00 0.00 100 1018.4
20260830061518 61 57 5.0 10.0 0.00 0.00 0.00 100 1018.7
20260830061017 61 28 5.0 12.0 0.00 0.00 0.00 100 1018.7
20260830060517 61 9 5.0 14.0 0.00 0.00 0.00 100 1018.8
20260830060016 61 35 5.0 14.0 0.00 0.00 0.00 100 1019.0
20260830055516 61 27 5.0 11.0 0.00 0.00 0.00 100 1019.0
20260830055014 61 61 5.0 16.0 0.00 0.00 0.00 100 1019.0
20260830054521 61 25 8.0 17.0 0.00 0.00 0.00 100 1019.1
20260830054014 61 62 7.0 17.0 0.00 0.00 0.00 100 1019.0
20260830053515 61 40 6.0 13.0 0.00 0.00 0.00 100 1019.1
20260830053015 61 16 6.0 12.0 0.00 0.00 0.00 100 1019.2
20260830052514 61 38 5.0 13.0 0.00 0.00 0.00 100 1019.3
20260830052014 61 14 7.0 14.0 0.00 0.00 0.00 100 1019.5
20260830051514 61 24 5.0 12.0 0.00 0.00 0.00 100 1019.6
20260830051014 61 360 3.0 14.0 0.00 0.00 0.00 100 1019.7
20260830050515 61 10 6.0 16.0 0.00 0.00 0.00 100 1019.7
20260830050012 61 37 9.0 16.0 0.00 0.00 0.00 100 1019.6
20260830045512 61 55 6.0 17.0 0.00 0.00 0.00 100 1019.5
20260830045012 61 86 6.0 17.0 0.00 0.00 0.00 100 1019.4
20260830044511 61 39 5.0 14.0 0.00 0.00 0.00 100 1019.4
20260830044010 61 23 4.0 12.0 0.00 0.00 0.00 100 1019.4
20260830043510 61 351 5.0 16.0 0.00 0.00 0.00 100 1019.4
20260830043009 61 36 5.0 16.0 0.00 0.00 0.00 100 1019.3
20260830042513 61 65 7.0 13.0 0.00 0.00 0.00 100 1019.3
20260830042008 62 30 5.0 11.0 0.00 0.00 0.00 100 1019.1
20260830041508 62 36 5.0 15.0 0.00 0.00 0.00 100 1019.1
20260830041007 62 345 6.0 16.0 0.00 0.00 0.00 100 1019.0
20260830040507 62 41 7.0 16.0 0.00 0.00 0.00 100 1018.9
20260830040019 62 27 6.0 13.0 0.00 0.00 0.00 100 1018.9
20260830035506 62 24 4.0 15.0 0.00 0.00 0.00 100 1018.8
20260830035006 62 15 4.0 18.0 0.00 0.00 0.00 100 1018.8
20260830034505 62 355 8.0 18.0 0.00 0.00 0.00 100 1018.6